Location: Wanzleben
(52.0609°N, 11.4408°E)
Time: 11:10:57
(UTC+00:00)

Meteor 1-15 Rocket - Pass Details

Date: 18 September 2020
Orbit: 840 x 907 km, 81.2° (Epoch: 25 October)

Event Time Altitude Azimuth Distance (km) Brightness Sun altitude
Rises 19:52:09 0° 199° (SSW) 3,399 7.2 -22.5°
Reaches altitude 10° 19:54:33 10° 202° (SSW) 2,475 6.5 -22.8°
Maximum altitude 20:00:09 69° 286° (WNW) 923 4.5 -23.5°
Drops below altitude 10° 20:05:53 10° 9° (N) 2,534 7.0 -24.2°
Sets 20:08:23 0° 12° (NNE) 3,486 7.8 -24.5°
